Aurora, CO

7:37 AM MDT on April 23, 2017 (GMT -0600)
Buckley Air Force Base

Weather History for KBKF - December, 2012

Change the Weather History Date:

Friday, December 28, 2012

  Actual Average Record
Temperature  
Mean Temperature 19 °F -  
Max Temperature 30 °F 42 °F 62 °F (1999)
Min Temperature 8 °F 21 °F 1 °F (2007)
Degree Days  
Heating Degree Days 46    
Moisture  
Dew Point 6 °F    
Average Humidity 63    
Maximum Humidity 92    
Minimum Humidity 37    
Precipitation  
Precipitation 0.00 in - - ()
Snow  
Snow 0.00 in - - ()
Snow Depth 1.00 in    
Sea Level Pressure  
Sea Level Pressure 30.10 in    
Wind  
Wind Speed 7 mph (South)    
Max Wind Speed 13 mph    
Max Gust Speed -    
Visibility 10 miles    
Events      
Averages and records for this station are not official NWS values.
T = Trace of Precipitation, MM = Missing Value Source: NWS Daily Summary

Daily Weather History Graph

Daily Weather History Graph

Search for Another Location

Airport or City:

Trip Planner

Search our weather history database for the weather conditions in past years. The results will help you decide how hot, cold, wet, or windy it might be!

Date:

Astronomy

Dec. 28, 2012 Rise Set
Actual Time 7:19 AM MST 4:42 PM MST
Civil Twilight 6:48 AM MST 5:12 PM MST
Nautical Twilight 6:15 AM MST 5:46 PM MST
Astronomical Twilight 5:42 AM MST 6:19 PM MST
Moon 5:21 PM MST (12/28) 7:15 AM MST (12/28)
Length of Visible Light 10h 23m
Length of Day
9h 23m
Full, 100% of the Moon is Illuminated
Dec 28
Full
Jan 4
Last Quarter
Jan 11
New
Jan 18
First Quarter
Jan 26
Full

Hourly Weather History & Observations

Time (MST) Temp. Windchill Dew Point Humidity Pressure Visibility Wind Dir Wind Speed Gust Speed Precip Events Conditions
12:55 AM 10.4 °F -0.4 °F 8.6 °F 92% 29.97 in 10.0 mi South 6.9 mph - N/A   Partly Cloudy
1:55 AM 10.4 °F 2.2 °F 8.6 °F 92% 30.02 in 10.0 mi South 4.6 mph - N/A   Partly Cloudy
2:55 AM 10.4 °F 0.8 °F 6.8 °F 85% 30.04 in 10.0 mi ESE 5.8 mph - N/A   Partly Cloudy
3:55 AM 10.4 °F -1.5 °F 5.0 °F 79% 30.03 in 10.0 mi SE 8.1 mph - N/A   Partly Cloudy
4:55 AM 8.6 °F -3.7 °F 5.0 °F 85% 30.04 in 10.0 mi South 8.1 mph - N/A   Mostly Cloudy
5:55 AM 8.6 °F -5.5 °F 3.2 °F 79% 30.05 in 10.0 mi South 10.4 mph - N/A   Mostly Cloudy
6:55 AM 10.4 °F -2.4 °F 5.0 °F 79% 30.07 in 70.0 mi South 9.2 mph - N/A   Mostly Cloudy
7:55 AM 12.2 °F 0.7 °F 6.8 °F 79% 30.07 in 70.0 mi South 8.1 mph - N/A   Mostly Cloudy
8:55 AM 15.8 °F 4.2 °F 10.4 °F 79% 30.08 in 70.0 mi South 9.2 mph - N/A   Mostly Cloudy
9:55 AM 21.2 °F 10.9 °F 12.2 °F 68% 30.08 in 70.0 mi South 9.2 mph - N/A   Mostly Cloudy
10:55 AM 23.0 °F 15.8 °F 14.0 °F 68% 30.09 in 70.0 mi SSW 5.8 mph - N/A   Mostly Cloudy
11:55 AM 26.6 °F 22.6 °F 10.4 °F 51% 30.06 in 70.0 mi SSE 3.5 mph - N/A   Mostly Cloudy
12:55 PM 30.2 °F 25.4 °F 6.8 °F 37% 30.03 in 70.0 mi NNE 4.6 mph - N/A   Mostly Cloudy
1:55 PM 30.2 °F 26.7 °F 8.6 °F 40% 30.04 in 70.0 mi NNE 3.5 mph - N/A   Mostly Cloudy
2:55 PM 28.4 °F 21.2 °F 10.4 °F 47% 30.06 in 70.0 mi East 6.9 mph - N/A   Scattered Clouds
3:55 PM 24.8 °F 16.9 °F 10.4 °F 54% 30.11 in 70.0 mi East 6.9 mph - N/A   Partly Cloudy
4:55 PM 19.4 °F - 8.6 °F 63% 30.17 in 10.0 mi SE 1.2 mph - N/A   Scattered Clouds
5:55 PM 21.2 °F 11.7 °F 1.4 °F 42% 30.17 in 10.0 mi West 8.1 mph - N/A   Scattered Clouds
6:55 PM 21.2 °F 14.9 °F 1.4 °F 42% 30.20 in 10.0 mi WNW 4.6 mph - N/A   Scattered Clouds
7:55 PM 19.4 °F 11.5 °F -0.4 °F 42% 30.21 in 10.0 mi SW 5.8 mph - N/A   Scattered Clouds
8:55 PM 17.6 °F 8.2 °F -0.4 °F 45% 30.21 in 10.0 mi WSW 6.9 mph - N/A   Scattered Clouds
9:55 PM 15.8 °F 6.1 °F -0.4 °F 49% 30.21 in 10.0 mi SSW 6.9 mph - N/A   Partly Cloudy
10:55 PM 12.2 °F 0.7 °F -0.4 °F 57% 30.24 in 10.0 mi South 8.1 mph - N/A   Partly Cloudy
11:55 PM 12.2 °F -2.5 °F -2.2 °F 53% 30.22 in 10.0 mi South 12.7 mph - N/A   Partly Cloudy